Regional Weather Roundup
Issued by NWS Goodland, KS

Home | Current Version | Previous Version | Graphics & Text | Print | Product List | Glossary On
Versions: 1 2 3 4 5 6 7 8 9 10 11 12 13 14 15 16 17 18 19 20 21 22 23 24 25 26 27 28 29 30 31 32 33 34 35 36 37 38 39 40 41 42 43 44 45 46 47 48 49 50
000
ASUS43 KGLD 300559
RWRGLD

GOODLAND FORECAST AREA HOURLY WEATHER ROUNDUP
NATIONAL WEATHER SERVICE GOODLAND KS
1200 AM MDT SUN APR 30 2017

...OFFICIAL OBSERVATIONS...

CITY           SKY/WX    TMP DP  RH WIND       PRES   REMARKS
GOODLAND KS    NOT AVBL
HILL CITY KS   NOT AVBL
IMPERIAL NEB   NOT AVBL
MCCOOK NEB     NOT AVBL
AKRON CO       NOT AVBL
BURLINGTON CO  NOT AVBL
LIMON CO       NOT AVBL
$$

...UNOFFICIAL OBSERVATIONS...

CITY           SKY/WX    TMP DP  RH WIND       PRES   REMARKS
LENORA KS        N/A     32  32 100 MISG        N/A
NORTON KS      LGT RAIN  34  30  86 N14G22    29.95F
SHARON SPRINGS   N/A     34  32  93 NE17        N/A
TRENTON NEB      N/A     37  32  82 N18         N/A
KIT CARSON CO    N/A     35  26  69 MISG        N/A
$$



USA.gov is the U.S. government's official web portal to all federal, state and local government web resources and services.